Regional Weather Roundup
Issued by NWS

Home | Current Version | Previous Version | Text Only | Print | Product List | Glossary On
Versions: 1 2 3 4 5 6 7 8 9 10 11 12 13 14 15 16 17 18 19 20 21 22 23 24 25 26 27 28 29 30 31 32 33 34 35 36 37 38 39 40 41 42 43 44 45 46 47 48 49 50
000
ASUS43 KMKX 220621
RWRWI

WISCONSIN REGIONAL WEATHER ROUNDUP
NATIONAL WEATHER SERVICE MILWAUKEE/SULLIVAN WI
1200 AM CST SAT NOV 22 2014

NOTE: "FAIR" INDICATES FEW OR NO CLOUDS BELOW 12,000 FEET WITH NO
SIGNIFICANT WEATHER AND/OR OBSTRUCTIONS TO VISIBILITY.

WIZ001-002-006>008-014>016-023>028-220700-
NORTHWEST WISCONSIN

CITY           SKY/WX    TMP DP  RH WIND       PRES   REMARKS
SUPERIOR ARPT  MOCLDY    31  23  74 SW15      29.77F WCI  20
6HR MIN TEMP:  28; 6HR MAX TEMP:  31;

ASHLAND        CLOUDY    31  22  69 SW17G31   29.78F WCI  19
6HR MIN TEMP:  25; 6HR MAX TEMP:  31;

HAYWARD        MOCLDY    28  22  78 S16G24    29.83F WCI  16
6HR MIN TEMP:  24; 6HR MAX TEMP:  28;

SIREN          CLOUDY    31  26  80 SW13G22   29.83F WCI  21
6HR MIN TEMP:  27; 6HR MAX TEMP:  31;

CUMBERLAND     CLOUDY    30  27  86 S14       29.85F WCI  20
RICE LAKE      CLOUDY    30  25  82 S9        29.89F WCI  22
6HR MIN TEMP:  22; 6HR MAX TEMP:  30;

CHETEK         CLOUDY    31  26  82 S7        29.89F WCI  24
6HR MIN TEMP:  22; 6HR MAX TEMP:  31;

LADYSMITH      CLOUDY    29  23  78 S10       29.90S WCI  19
6HR MIN TEMP:  23; 6HR MAX TEMP:  29;

EAU CLAIRE     CLOUDY    32  25  75 S10G21    29.91F WCI  24
6HR MIN TEMP:  25; 6HR MAX TEMP:  32;

MENOMONIE      CLOUDY    32  26  80 S10       29.91F WCI  24
6HR MIN TEMP:  27; 6HR MAX TEMP:  32;

NEW RICHMOND   CLOUDY    32  28  83 S15       29.87F WCI  22
6HR MIN TEMP:  26; 6HR MAX TEMP:  32;

OSCEOLA        CLOUDY    32  28  84 S10       29.90S WCI  23
6HR MIN TEMP:  27; 6HR MAX TEMP:  32;

$$

WIZ003>005-009-010-017-018-220700-
NORTH CENTRAL WISCONSIN

CITY           SKY/WX    TMP DP  RH WIND       PRES   REMARKS
MANITOWISH WTR CLOUDY    25  19  77 SW14G24   29.81F WCI  14
6HR MIN TEMP:  21; 6HR MAX TEMP:  25;

ARBOR VITAE    CLOUDY    27  19  74 SW13G20   29.84S WCI  16
6HR MIN TEMP:  22; 6HR MAX TEMP:  27;

WOODRUFF       CLOUDY    27  19  74 SW13G20   29.84S WCI  16
6HR MIN TEMP:  22; 6HR MAX TEMP:  27;

RHINELANDER    MOCLDY    25  16  68 SW17G24   29.87F WCI  12
6HR MIN TEMP:  21; 6HR MAX TEMP:  25;

EAGLE RIVER    CLOUDY    26  17  68 SW9G18    29.83F WCI  16
6HR MIN TEMP:  20; 6HR MAX TEMP:  26;

LAND O LAKES   CLOUDY    26  19  73 SW13G18   29.81F WCI  15
6HR MIN TEMP:  21; 6HR MAX TEMP:  26;

PHILLIPS       CLOUDY    27  20  76 SW14G22   29.86S WCI  15
6HR MIN TEMP:  21; 6HR MAX TEMP:  27;

TOMAHAWK       MOCLDY    27  19  72 S5        29.89F WCI  21
6HR MIN TEMP:  21; 6HR MAX TEMP:  27;

MEDFORD        CLOUDY    27  19  74 S15       29.90F WCI  15
6HR MIN TEMP:  21; 6HR MAX TEMP:  27;

MERRILL        CLOUDY    27  17  65 SW9       29.92F WCI  18
6HR MIN TEMP:  23; 6HR MAX TEMP:  27;

$$

WIZ029-030-035-036-043>047-220700-
CENTRAL WISCONSIN

CITY           SKY/WX    TMP DP  RH WIND       PRES   REMARKS
WAUSAU         CLOUDY    28  16  60 S13       29.93F WCI  17
6HR MIN TEMP:  24; 6HR MAX TEMP:  28;

MOSINEE        CLOUDY    28  19  69 S14       29.95F WCI  17
MARSHFIELD     CLOUDY    30  20  66 SW13      29.94F WCI  20
6HR MIN TEMP:  24; 6HR MAX TEMP:  30;

STEVENS POINT  CLOUDY    28  17  62 SW10      29.97F WCI  19
6HR MIN TEMP:  23; 6HR MAX TEMP:  28;

WAUPACA        CLOUDY    33  17  51 S12       30.00F WCI  24
6HR MIN TEMP:  28; 6HR MAX TEMP:  33;

WAUTOMA        CLOUDY    33  18  54 SW10      30.02F WCI  25
6HR MIN TEMP:  27; 6HR MAX TEMP:  33;

WISC RAPIDS    CLOUDY    31  18  58 SW16      29.99F WCI  20
6HR MIN TEMP:  26; 6HR MAX TEMP:  31;

CAMP DOUGLAS   CLOUDY    33  23  67 S7        29.99F WCI  26
6HR MIN TEMP:  27; 6HR MAX TEMP:  33;

$$

WIZ011>013-019>022-031-037>040-048>050-220700-
NORTHEAST WISCONSIN

CITY           SKY/WX    TMP DP  RH WIND       PRES   REMARKS
ANTIGO         CLOUDY    26  16  68 SW14      29.91F WCI  14
6HR MIN TEMP:  19; 6HR MAX TEMP:  26;

SHAWANO        CLOUDY    31  14  50 SW8       29.99S WCI  23
6HR MIN TEMP:  28; 6HR MAX TEMP:  31;

OCONTO         CLOUDY    30  13  49 SW12G18   29.98F WCI  21
6HR MIN TEMP:  28; 6HR MAX TEMP:  30;

STURGEON BAY   CLOUDY    28  10  47 S16       29.98F WCI  17
6HR MIN TEMP:  28; 6HR MAX TEMP:  28;

GREEN BAY      CLOUDY    31  15  52 S15G22    30.01F WCI  20
6HR MIN TEMP:  28; 6HR MAX TEMP:  31;

MANITOWOC      CLOUDY    32  13  45 S14       30.04F WCI  22
6HR MIN TEMP:  29; 6HR MAX TEMP:  32;

APPLETON       CLOUDY    30  18  59 SW17G25   30.02F WCI  18
CLINTONVILLE   CLOUDY    30  16  55 SW12      29.98F WCI  21
OSHKOSH        CLOUDY    31  16  54 SW15G25   30.03F WCI  20
6HR MIN TEMP:  25; 6HR MAX TEMP:  31;

$$

WIZ032>034-041-042-053>061-220700-
SOUTHWEST WISCONSIN

CITY           SKY/WX    TMP DP  RH WIND       PRES   REMARKS
LA CROSSE      CLOUDY    35  23  61 S6        30.00S WCI  30
6HR MIN TEMP:  30; 6HR MAX TEMP:  35;

SPARTA         CLOUDY    33  23  66 SW8G16    30.00F WCI  26
6HR MIN TEMP:  28; 6HR MAX TEMP:  33;

VIROQUA        CLOUDY    32  24  72 S13G21    29.99F WCI  22
6HR MIN TEMP:  27; 6HR MAX TEMP:  32;

BOSCOBEL       CLOUDY    34  20  56 S13G21    30.06F WCI  25
6HR MIN TEMP:  31; 6HR MAX TEMP:  34;

PRAIRIE DU CHI CLOUDY    34  22  61 CALM      30.05F
6HR MIN TEMP:  31; 6HR MAX TEMP:  34;

PLATTEVILLE    CLOUDY    32  26  80 S13       30.07F WCI  22
6HR MIN TEMP:  28; 6HR MAX TEMP:  32;

$$

WIZ056-057-062-063-064-067-068-220700-
SOUTH CENTRAL WISCONSIN

CITY           SKY/WX    TMP DP  RH WIND       PRES   REMARKS
REEDSBURG      CLOUDY    32  19  58 SW13      30.03F WCI  23
6HR MIN TEMP:  27; 6HR MAX TEMP:  32;

BARABOO/DELLS  CLOUDY    32  18  56 SW16G25   30.02F WCI  21
6HR MIN TEMP:  27; 6HR MAX TEMP:  32;

LONE ROCK      CLOUDY    37  19  48 SW10      30.07F WCI  30
6HR MIN TEMP:  32; 6HR MAX TEMP:  37;

MINERAL POINT  LGT RAIN  32  27  80 S12       30.05F WCI  23
MADISON        CLOUDY    32  18  56 S17       30.08F WCI  21
6HR MIN TEMP:  28; 6HR MAX TEMP:  32;

MIDDLETON      CLOUDY    32  22  66 SW13G23   30.07F WCI  22
6HR MIN TEMP:  30; 6HR MAX TEMP:  33;

WATERTOWN      CLOUDY    31  16  54 S10       30.08F WCI  22
6HR MIN TEMP:  25; 6HR MAX TEMP:  31;

MONROE         CLOUDY    32  19  59 S15G22    30.08F WCI  22
JANESVILLE     CLOUDY    34  16  47 S14       30.11F WCI  24
$$

WIZ051-052-058>065-066-070>072-220700-
SOUTHEAST WISCONSIN

CITY           SKY/WX    TMP DP  RH WIND       PRES   REMARKS
MILWAUKEE      CLOUDY    33  11  39 SW15      30.11F WCI  23
6HR MIN TEMP:  27; 6HR MAX TEMP:  33;

WAUKESHA       CLOUDY    30  14  51 S9G16     30.10F WCI  22
MILWAUKEE/TIMM CLOUDY    32  10  40 SW10      30.11F WCI  24
RACINE         CLOUDY    34  12  40 S17G28    30.13F WCI  23
6HR MIN TEMP:  28; 6HR MAX TEMP:  34;

BURLINGTON     CLOUDY    31  15  52 S15       30.11F WCI  20
6HR MIN TEMP:  24; 6HR MAX TEMP:  31;

KENOSHA        CLOUDY    34  12  40 SW16      30.13F WCI  24
6HR MIN TEMP:  25; 6HR MAX TEMP:  34;

FOND DU LAC    CLOUDY    31  15  52 S23       30.03F WCI  18
6HR MIN TEMP:  26; 6HR MAX TEMP:  31;

SHEBOYGAN      CLOUDY    31  12  45 S18       30.06F WCI  19
6HR MIN TEMP:  27; 6HR MAX TEMP:  31;

WEST BEND      CLOUDY    32  14  47 S9        30.07F WCI  24
JUNEAU         CLOUDY    30  17  56 S15       30.08F WCI  19
6HR MIN TEMP:  25; 6HR MAX TEMP:  30;

$$

LSZ147-162-220700-
LAKE SUPERIOR

STATION/POSITION TIME  TEMP    WIND        PRES    WAVE
                       AIR SEA DIR/SP/G            HT/PER
                 (UTC) (F)     (DEG/KT/KT) (MB)    (FT/S)
DEVILS ISLAND    0600   33     230/ 26/ 30 1007.8F
PORT WING        0540   31     200/ 14/ 21 1008.5F
SAXON HARBOR     0600   32     200/ 14/ 25 1008.1F
$$

LMZ867-665-643>646-220700-
LAKE MICHIGAN

STATION/POSITION TIME  TEMP    WIND        PRES    WAVE



USA.gov is the U.S. government's official web portal to all federal, state and local government web resources and services.